Regional Weather Roundup
Issued by NWS

Home | Current Version | Previous Version | Text Only | Print | Product List | Glossary Off
Versions: 1 2 3 4 5 6 7 8 9 10 11 12 13 14 15 16 17 18 19 20 21 22 23 24 25 26 27 28 29 30 31 32 33 34 35 36 37 38 39 40 41 42 43 44 45 46 47 48 49 50

000
ASUS43 KLMK 191910
RWRKY
KENTUCKY REGIONAL WEATHER ROUNDUP
NATIONAL WEATHER SERVICE LOUISVILLE KY
300 PM EDT SAT APR 19 2014

NOTE "FAIR" INDICATES FEW OR NO CLOUDS BELOW 12,000 FEET
WITH NO SIGNIFICANT WEATHER AND/OR OBSTRUCTIONS TO VISIBILITY.

KYZ001>023-026-027-061>063-070>075-192000-
WESTERN AND SOUTH CENTRAL KENTUCKY

CITY           SKY/WX    TMP DP  RH WIND       PRES   REMARKS
PADUCAH        SUNNY     77  40  26 CALM      30.19F
HENDERSON      SUNNY     72  43  35 NE8       30.22S
OWENSBORO      SUNNY     73  39  29 NE8       30.21F
HOPKINSVILLE   SUNNY     75  39  27 NE9       30.18F
BOWLING GREEN  SUNNY     74  41  30 NE7G20    30.19F
GLASGOW        SUNNY     73  40  30 E13       30.18F
$$

KYZ024-025-028>034-038-045-046-053-192000-
NORTH CENTRAL KENTUCKY

CITY           SKY/WX    TMP DP  RH WIND       PRES   REMARKS
LOUISVILLE/SDF MOSUNNY   74  34  23 NE12G18   30.22F
LOUISVILLE/LOU SUNNY     74  34  23 E14       30.22F
FORT KNOX      SUNNY     73  39  29 NE7G17    30.20F
$$

KYZ035>037-039>044-047>052-055>060-089>105-192000-
NORTHEAST KENTUCKY

CITY           SKY/WX    TMP DP  RH WIND       PRES   REMARKS
LEXINGTON      SUNNY     71  40  32 NE14      30.22F
COVINGTON      SUNNY     69  37  30 NE12G22   30.26F
FRANKFORT      SUNNY     71  35  26 E12G17    30.22F
$$

KYZ054-064>069-076>088-106>120-192000-
SOUTHEAST KENTUCKY

CITY           SKY/WX    TMP DP  RH WIND       PRES   REMARKS
JACKSON        MOSUNNY   72  33  24 NE8       30.18F
LONDON         PTSUNNY   72  35  25 N13       30.16F
SOMERSET       SUNNY     70  34  26 N14       30.18F
MIDDLESBORO    CLOUDY    71  36  27 NE7       30.15S
MONTICELLO     PTCLDY    74  40  29 NE16G22   30.18F
$$




USA.gov is the U.S. government's official web portal to all federal, state and local government web resources and services.